DW3835 Weather Reports


Display with metric or nautical units.
time (UTC)temp
F
wind
direction
speed
MPH
gust
MPH
rain 1hr
in
rain 24hr
in
rain mn
in
humidity
%
barometer
mb
20260504194327 63 180 0.0 2.0 0.00 0.00 0.00 70 1013.8
20260504193309 62 146 0.0 3.0 0.00 0.00 0.00 69 1013.7
20260504191108 64 162 1.0 6.0 0.00 0.00 0.00 70 1013.6
20260504190109 63 157 0.0 3.0 0.00 0.00 0.00 67 1013.6
20260504185104 64 313 0.0 5.0 0.00 0.00 0.00 66 1013.7
20260504182919 63 162 1.0 7.0 0.00 0.00 0.00 67 1013.7
20260504175613 60 186 0.0 1.0 0.00 0.00 0.00 75 1013.6
20260504174542 61 193 0.0 3.0 0.00 0.00 0.00 73 1013.6
20260504173538 61 355 0.0 3.0 0.00 0.00 0.00 74 1013.5
20260504172511 59 147 0.0 4.0 0.00 0.00 0.00 75 1013.5
20260504171449 61 167 0.0 4.0 0.00 0.00 0.00 74 1013.5
20260504170444 60 91 1.0 6.0 0.00 0.00 0.00 74 1013.3
20260504160341 57 175 0.0 3.0 0.00 0.00 0.00 78 1013.1
20260504150225 56 168 0.0 3.0 0.00 0.00 0.00 85 1013.2
20260504141050 54 78 0.0 1.0 0.00 0.00 0.00 88 1013.3
20260504110326 54 105 0.0 0.0 0.00 0.00 0.00 87 1012.7
20260504081629 54 89 0.0 0.0 0.00 0.00 0.00 86 1012.9
20260504080612 54 144 0.0 0.0 0.00 0.00 0.00 86 1013.1
20260504070325 54 192 0.0 0.0 0.00 0.00 0.00 87 1013.2
20260504060219 53 96 0.0 0.0 0.00 0.00 0.00 85 1012.8
20260504045835 53 142 0.0 0.0 0.00 0.00 0.00 85 1012.7
20260504042627 53 150 0.0 0.0 0.00 0.00 0.00 84 1012.4
20260504041604 53 207 0.0 0.0 0.00 0.00 0.00 83 1012.3
20260504040601 54 219 0.0 0.0 0.00 0.00 0.00 83 1012.2
20260504035605 54 227 0.0 0.0 0.00 0.00 0.00 83 1012.1
20260504034620 54 228 0.0 0.0 0.00 0.00 0.00 82 1012.1
20260504033605 55 107 0.0 0.0 0.00 0.00 0.00 82 1012.0
20260504032538 55 355 0.0 0.0 0.00 0.00 0.00 82 1011.9
20260504031510 56 180 0.0 1.0 0.00 0.00 0.00 81 1011.6
20260504030442 56 172 0.0 0.0 0.00 0.00 0.00 82 1011.6
20260504025439 57 148 0.0 0.0 0.00 0.00 0.00 81 1011.6
20260504024429 57 150 0.0 3.0 0.00 0.00 0.00 82 1011.5
20260504023356 57 103 0.0 2.0 0.00 0.00 0.00 81 1011.3
20260504022413 57 138 0.0 6.0 0.00 0.00 0.00 80 1011.1
20260504021429 57 202 0.0 6.0 0.00 0.00 0.00 80 1011.1
20260504020447 58 144 0.0 8.0 0.00 0.00 0.00 79 1011.1
20260504015449 58 148 0.0 1.0 0.00 0.00 0.00 79 1011.0
20260504014500 58 128 0.0 0.0 0.00 0.00 0.00 79 1011.2
20260504012348 59 171 0.0 3.0 0.00 0.00 0.00 77 1011.2
20260504010240 60 145 0.0 7.0 0.00 0.00 0.00 76 1011.3
20260504005255 60 143 0.0 4.0 0.00 0.00 0.00 76 1011.3
20260504003133 60 152 0.0 3.0 0.00 0.00 0.00 75 1011.2
20260504000947 61 177 1.0 8.0 0.00 0.00 0.00 73 1011.1
20260504000000 62 326 1.0 6.0 0.00 0.00 0.00 70 1010.9
20260503235011 62 61 1.0 6.0 0.00 0.00 0.00 71 1010.8
20260503234031 62 155 1.0 6.0 0.00 0.00 0.00 71 1010.9
20260503233047 62 288 0.0 7.0 0.00 0.00 0.00 70 1010.9
20260503232037 62 102 1.0 7.0 0.00 0.00 0.00 70 1010.9
20260503231003 61 92 1.0 5.0 0.00 0.00 0.00 72 1010.7
20260503225958 62 179 0.0 5.0 0.00 0.00 0.00 71 1010.9
20260503225004 62 167 1.0 7.0 0.00 0.00 0.00 71 1010.8
20260503224029 62 257 0.0 7.0 0.00 0.00 0.00 72 1010.9
20260503223037 62 121 0.0 7.0 0.00 0.00 0.00 73 1011.1
20260503222101 61 184 0.0 4.0 0.00 0.00 0.00 74 1011.1
20260503215911 62 169 1.0 8.0 0.00 0.00 0.00 72 1011.0
20260503214905 63 201 2.0 8.0 0.00 0.00 0.00 70 1011.0
20260503213900 62 167 1.0 4.0 0.00 0.00 0.00 69 1011.1
20260503212855 62 183 1.0 7.0 0.00 0.00 0.00 71 1011.0
20260503210655 62 174 0.0 4.0 0.00 0.00 0.00 71 1011.1
20260503205655 62 153 1.0 6.0 0.00 0.00 0.00 73 1011.1
20260503203521 62 159 1.0 6.0 0.00 0.00 0.00 75 1010.9
20260503202526 62 156 0.0 4.0 0.00 0.00 0.00 73 1011.0
20260503201515 63 132 1.0 5.0 0.00 0.00 0.00 73 1011.1
20260503200502 63 168 1.0 5.0 0.00 0.00 0.00 72 1011.1
20260503195458 62 254 1.0 6.0 0.00 0.00 0.00 71 1011.2